Погода в Тернополе

Погода в Тернополе : погода сейчас, прогноз погоды и архив. Всё, что Вы хотите узнать о погоде в Тернополе!

Хотите узнать прогноз погоды в Тернополе? Тогда Вам сюда: Погода в Тернополе

Поиск расширенной информации на нашем сайте:

Другие новости

Новости СМИ2

Главная страница сайта

Новости сайта

02.10.2013

Напоминаем, что на нашем новом сайте вы можете получить высокодетализированные прогнозы погоды по пунктам России, СНГ и мира (включающие важные для авиации метеовеличины, такие как направление и скорость ветра, видимость, явления погоды, количество и форма облачности, нижняя и верхняя граница облачности), а также ознакомиться с разнообразными материалами по авиационной метеорологии и подборкой полезных ссылок на эту тему.

Сайт Метеоцентр.Азия посвящён разработке технологий оптимизации авиаметеорологического обслуживания, включая проектирование и перспективное создание нескольких автоматизированных авиаметеорологических систем:
- система выпуска высокодетальных прогностических карт явлений погоды для нижнего воздушного пространства по России и ближнему зарубежью;
- система верификации прогнозов TAF (выпускаемых синоптиками официальных АМСГ РФ и ближнего зарубежья) и AUTOTAF (выпускаемых сайтом Метеоцентр.Азия) - выявление ошибок, онлайн-сопоставление с фактической погодой METAR, автоматическое внесение коррективов в прогнозы при резком отклонении фактической погоды от прогноза, подсчёт оправдываемости прогнозов по элементам и в целом;
- система обработки, анализа и отображения авиаметеорологической информации для применения провайдерами метеорологической информации.


Погода в Тернополе - сегодня

Время (UTC), дата Ветер
(°,м/с) 
Видим.   Явления Облачность Т
(°С)
Тd
(°С)
f(%) Тe
(°С)
Pmin
(гПа)
dP
(гПа)
Po
(мм)
O2
(г/м3)
Тmin Tmax R s Состояние
почвы
18 24.06.17 290 (З) 10 км    9/6 1000 м средняя 
[Sc|Ac trans]
+19.2 +15.5 79 +29  1012.8  0.3  731  272    +21  0.4     
21 24.06.17 260 (З) 10 км    10/8 700 м средняя 
[Sc|Ac und]
+18.2 +15.2 83 +29  1013.6  0.6  732  273           
00 25.06.17 340 (С) 10 км    10/8 700 м средняя 
[Sc|Ac und]
+17.4 +15 86 +27  1013.9  0.2  732  274           
03 25.06.17 140 (ЮВ) 10 км    4/0 средняя 
[Ac trans]
+14.9 +13.5 91 +23  1013.8  -0.4  732  277           
06 25.06.17 180 (Ю) 10 км    3/0 верхняя 
[Ci fib]
+20.5 +16.9 80 +33  1012.7  -0.3  731  270  +14.4         
09 25.06.17 230 (ЮЗ) 20000 м    3/0 верхняя 
[Ci fib]
+25.8 +15.2 52 +36  1011.6  -0.5  731  266           
12 25.06.17 250 (З) 20000 м    6/4 1000 м верхняя 
[Cu hum|Ci fib]
+28.2 +14.2 42 +36  1010.5  -0.8  730  264           
15 25.06.17 140 (ЮВ) 10 км  гроза без осадков  9/5 1000 м кучево-дожд., верхняя 
[Cb cap|Ci fib]
+25.5 +16.7 58 +38  1009.5  -1.2  730  265           
18 25.06.17 230 (ЮЗ) 10 км  {гроза}  8/3 1000 м верхняя 
[Sc|Ci fib]
+24.6 +18.5 69 +41  1009.2  -0.4  729  265    +28.3       
21 25.06.17 230 (ЮЗ) 10 км    6/0 верхняя 
[Ci fib]
+20.1 +17 82 +33  1010.2  0.4  730  270           
00 26.06.17 тихо ()   10 км    3/0 верхняя 
[Ci fib]
+18 +15.8 87 +29  1010.3  -0.2  729  272           
03 26.06.17 250 (З) 10 км    9/4 1000 м кучево-дожд., средняя 
[Cb cap|Ac trans]
+18.3 +16 86 +30  1010.2  729  272           
06 26.06.17 230 (ЮЗ) 10 км  слаб. ливневой дождь  9/5 1000 м кучево-дожд., средняя 
[Cb cap|Ac trans]
+19.4 +16.6 84 +32  1010.4  0.3  730  271  +17.9    0.0     
09 26.06.17 200 (Ю) 10 км  слаб. ливневой дождь  9/6 1000 м кучево-дожд., средняя 
[Cb cap|Ac trans]
+19.7 +16.8 83 +33  1011.1  0.7  730  271           
12 26.06.17 270 (З) 10 км  {ливн. осадки}  8/5 1000 м кучево-дожд., средняя 
[Cb cap|Ac trans]
+23.7 +16.4 64 +36  1009.9  -0.6  730  267      0.0     
15 26.06.17 290 (З) 10 км    8/6 1000 м средняя 
[Cu med, cong|Ac trans]
+23.8 +14.9 57 +33  1009.4  -0.5  729  267           
18 26.06.17 320 (СЗ) 10 км    8/4 1000 м средняя 
[Sc diur, vesp|Ac trans]
+21.9 +16.2 70 +34  1009.3  -0.3  729  268    +24.1  0.0     
21 26.06.17 270 (З) 10 км    8/5 1000 м средняя 
[Sc|Ac trans]
+18.1 +15.9 87 +29  1011.1  1.2  730  272           
00 27.06.17 280 (З) 10 км    9/6 1000 м средняя 
[Sc|Ac trans]
+16.7 +15.2 91 +27  1012.6  1.3  731  274           
03 27.06.17 290 (З) 10 км    5/3 1000 м средняя 
[Sc|Ac trans]
+16.5 +14.6 89 +26  1013.1  0.4  731  275           
06 27.06.17 330 (СЗ) 10 км    6/4 1000 м средняя 
[Sc|Ac trans]
+17.8 +14.7 82 +27  1014.1  1.1  732  274  +16.4         
09 27.06.17 300 (СЗ) 10 км    9/5 1000 м средняя 
[Sc|Ac trans]
+20.7 +13.9 65 +28  1014.8  0.8  733  272           
12 27.06.17 270 (З) 10 км    8/4 1000 м средняя 
[Cu hum|Ac trans]
+23.6 +13.6 53 +31  1013.6  -0.8  732  269           
15 27.06.17 290 (З) 10 км    4/4 1000 м 
[Cu hum]
+25 +13.1 48 +31  1012.3  -1.1  731  267           
18 27.06.17 070 (В) 10 км    4/0 средняя, верхняя 
[Ac trans|Ci fib]
+22.4 +15.3 64 +32  1012.2  -0.4  731  269    +25.1       
Время (UTC), дата Ветер
(°,м/с) 
Видим.   Явления Облачность Т
(°С)
Тd
(°С)
f(%) Тe
(°С)
Pmin
(гПа)
dP
(гПа)
Po
(мм)
O2
(г/м3)
Тmin Tmax R s Состояние
почвы

Для получения пояснительной информации подведите курсор к названию столбца.

ПОГОДА в Тернополе - архив

Всё, что Вы хотите узнать о погоде в Тернополе - удобно и подробно!

Выберите нужную дату (начиная с 1 января 2015* года) и нажмите кнопку "Найти".
Будут отображены архивные сводки погоды по пункту Тернополь, начиная с указанной даты.


Отображать данные в формате CSV (для использования в таблицах Excel)


Внимание! Наш архив погоды предназначен исключительно для личного некоммерческого использования в познавательных целях. Если Вам необходимы официальные справки о состоянии погоды (для производственных, юридических, коммерческих и т.п. целей), обращайтесь в органы Росгидромета.

*Примечание: данная дата относится к архиву по метеостанциям СССР (Россия, СНГ, Балтия).
Архив по метеостанциям Зарубежной Европы и Азии (кроме Китая) хранится 10 дней, по другим регионам земного шара (Китай, Африка, Америка, Австралия, Океания) - 1 день.

Тернополь - район местоположения метеостанции


Название, широта, долгота, высота метеостанции:
Тернополь 49.5°ш. 25.7°д. 329 м над ур. моря [Украина]

Дополнительная информация

В oтличие oт бoльшинства пoгoдных сайтoв мы публикуем пoдрoбную метеoинфoрмацию в детальнoм прoфессиoнальнoм фoрмате.

Характеристики температуры и влажнoсти вoздуха измеряются на высoте 2 м в тени вдали oт зданий и деревьев.
Скoрoсть ветра измеряется на высoте 10 м (на урoвне рoста челoвека скoрoсть ветра ниже в 1.5-2 раза). Если метеoстанция нахoдится в гoрoде или в лесу, тo скoрoсть ветра занижена на 2-4 м/с пo сравнению с oткрытым местoм. Скoрoсть ветра над акватoриями крупных рек и oзёр, а также на вершинах хoлмoв на 2-5 м/с выше, чем в oбычных услoвиях.
Атмoсфернoе давление в разных тoчках местнoсти мoжет значительнo oтличаться oт давления на метеoстанции, в зависимoсти oт услoвий рельефа (при пoдъёме на 10 м давление пoнижается примернo на 1 мм рт.ст.).